Tracking 18987 objects as of 25-Feb-2018
HD Live streaming from Space Station
objects crossing your sky now

FENGYUN 1C DEB

Track FENGYUN 1C DEB now!
10-day predictions


NORAD ID: 41822
Int'l Code: 1999-025EXZ
Perigee: 816.0 km
Apogee: 909.9 km
Inclination: 98.9 °
Period: 102.1 minutes
Semi major axis: 7233 km
RCS: Unknown
Launch date: May 10, 1999
Source: People's Republic of China (PRC)
Launch site: Taiyaun Space Center, China (TSC)

Note: This is SATELLITE DEBRIS
aabbcc
Your satellite tracking list
Your tracking list is empty




NASA's NSSDC Master Catalog

Two Line Element Set (TLE):
1 41822U 99025EXZ 18055.65644363  .00000607  00000-0  35493-3 0  9998
2 41822  98.9389 113.7274 0064842  47.7988 312.8662 14.11041191 71017
Source of the keplerian elements: AFSPC